AFR406 LFPG-SCEL

Flight info

Callsign AFR406
Flight time N/A
Altitude 28000
Route LGL UN491 OTOFE DCT ALUTA/N0489F300 DCT TAKAS/M083F300 DCT LASNO DCT 46N015W 43N020W 35N030W 30N035W/M083F320 25N039W 20N043W/N0494F320 15N045W DCT PANON/N0496F340 DCT MEBLI DCT REKIM DCT CYR UL306 NISKI DCT OBGUX DCT LODOK DCT SUSNO DCT PAKEM UL322 CLUBE/N0489F360 UL322 VIR UL540 SOTKU/N0483F370 UT293 ENTOP UQ815 SIMOK SIMOK7B
Aircraft B77W/H-SDE1E2E3FGHIJ2J3J4J5M1RWXY/LB1D1

Departure

Time 2026-05-03 20:31
Airport Charles de Gaulle International Airport (LFPG)

Arrival

Time N/A
Airport Comodoro Arturo Merino Benítez International Airport (SCEL)
Time Latitude Longitude Altitude Speed Heading
2026-05-03 20:15 49.00563 2.58585 359 ft 0 kts 266°
2026-05-03 20:17 49.00563 2.58587 359 ft 2 kts 266°
2026-05-03 20:17 49.00564 2.58611 367 ft 4 kts 266°
2026-05-03 20:18 49.00566 2.58652 367 ft 4 kts 266°
2026-05-03 20:18 49.00567 2.58688 365 ft 4 kts 279°
2026-05-03 20:18 49.00557 2.58717 368 ft 4 kts 346°
2026-05-03 20:18 49.00531 2.58719 364 ft 3 kts 356°
2026-05-03 20:19 49.00527 2.58720 363 ft 0 kts 354°
2026-05-03 20:21 49.00530 2.58719 364 ft 3 kts 354°
2026-05-03 20:21 49.00554 2.58716 368 ft 3 kts 354°
2026-05-03 20:21 49.00571 2.58713 365 ft 3 kts 354°
2026-05-03 20:22 49.00589 2.58710 368 ft 3 kts 354°
2026-05-03 20:22 49.00607 2.58707 366 ft 4 kts 354°
2026-05-03 20:22 49.00649 2.58701 359 ft 7 kts 355°
2026-05-03 20:22 49.00696 2.58695 367 ft 7 kts 355°
2026-05-03 20:23 49.00743 2.58688 364 ft 7 kts 355°
2026-05-03 20:23 49.00790 2.58683 362 ft 7 kts 359°
2026-05-03 20:23 49.00837 2.58722 366 ft 8 kts 53°
2026-05-03 20:23 49.00854 2.58809 359 ft 10 kts 81°
2026-05-03 20:24 49.00862 2.58922 363 ft 11 kts 84°
2026-05-03 20:24 49.00869 2.59038 359 ft 11 kts 85°
2026-05-03 20:24 49.00876 2.59154 364 ft 11 kts 85°
2026-05-03 20:24 49.00881 2.59270 366 ft 11 kts 85°
2026-05-03 20:25 49.00887 2.59386 360 ft 11 kts 86°
2026-05-03 20:25 49.00884 2.59500 364 ft 11 kts 113°
2026-05-03 20:25 49.00814 2.59550 362 ft 14 kts 173°
2026-05-03 20:25 49.00690 2.59566 361 ft 19 kts 175°
2026-05-03 20:26 49.00560 2.59581 361 ft 19 kts 175°
2026-05-03 20:26 49.00431 2.59596 364 ft 19 kts 175°
2026-05-03 20:26 49.00301 2.59614 363 ft 19 kts 174°
2026-05-03 20:26 49.00174 2.59631 361 ft 16 kts 175°
2026-05-03 20:27 49.00100 2.59666 367 ft 11 kts 129°
2026-05-03 20:27 49.00091 2.59801 365 ft 18 kts 85°
2026-05-03 20:27 49.00102 2.60020 365 ft 21 kts 85°
2026-05-03 20:27 49.00114 2.60244 360 ft 21 kts 85°
2026-05-03 20:28 49.00126 2.60467 359 ft 21 kts 85°
2026-05-03 20:28 49.00138 2.60676 363 ft 18 kts 85°
2026-05-03 20:28 49.00147 2.60865 365 ft 18 kts 92°
2026-05-03 20:28 49.00088 2.61001 367 ft 15 kts 155°
2026-05-03 20:29 49.00012 2.61020 361 ft 6 kts 174°
2026-05-03 20:29 49.00011 2.61020 361 ft 0 kts 174°
2026-05-03 20:29 49.00010 2.61020 361 ft 1 kts 174°
2026-05-03 20:30 48.99961 2.61023 361 ft 11 kts 184°
2026-05-03 20:30 48.99893 2.60976 364 ft 11 kts 224°
2026-05-03 20:30 48.99867 2.60880 359 ft 7 kts 265°
2026-05-03 20:30 48.99861 2.60761 362 ft 21 kts 265°
2026-05-03 20:31 48.99833 2.60239 357 ft 87 kts 266°
2026-05-03 20:31 48.99764 2.58923 358 ft 161 kts 265°
2026-05-03 20:31 48.99655 2.56913 400 ft 218 kts 265°
2026-05-03 20:31 48.99541 2.54603 1341 ft 211 kts 264°
2026-05-03 20:32 48.99430 2.52443 2531 ft 210 kts 263°
2026-05-03 20:32 48.99303 2.50176 2765 ft 223 kts 263°
2026-05-03 20:32 48.99162 2.47756 3058 ft 234 kts 263°
2026-05-03 20:32 48.99019 2.45232 3412 ft 244 kts 264°
2026-05-03 20:33 48.98924 2.43476 3702 ft 249 kts 264°
2026-05-03 20:33 48.98731 2.39938 4378 ft 255 kts 264°
2026-05-03 20:33 48.98582 2.37240 4980 ft 257 kts 263°
2026-05-03 20:33 48.98431 2.34520 5551 ft 259 kts 263°
2026-05-03 20:34 48.98278 2.31783 6111 ft 261 kts 263°
2026-05-03 20:34 48.98123 2.29017 6655 ft 263 kts 263°
2026-05-03 20:34 48.97967 2.26237 7183 ft 265 kts 263°
2026-05-03 20:34 48.97809 2.23435 7718 ft 266 kts 263°
2026-05-03 20:35 48.97650 2.20618 8246 ft 268 kts 263°
2026-05-03 20:35 48.97488 2.17779 8774 ft 271 kts 263°
2026-05-03 20:35 48.97324 2.14911 9289 ft 273 kts 263°
2026-05-03 20:35 48.97159 2.12027 9821 ft 274 kts 263°
2026-05-03 20:36 48.96991 2.09118 10225 ft 280 kts 263°
2026-05-03 20:36 48.96814 2.06069 10355 ft 297 kts 263°
2026-05-03 20:36 48.96626 2.02856 10511 ft 314 kts 263°
2026-05-03 20:36 48.96427 1.99441 10648 ft 331 kts 263°
2026-05-03 20:37 48.96220 1.95892 10812 ft 348 kts 263°
2026-05-03 20:37 48.95999 1.92149 11204 ft 358 kts 263°
2026-05-03 20:37 48.95775 1.88376 11711 ft 364 kts 263°
2026-05-03 20:37 48.95544 1.84500 12349 ft 367 kts 262°
2026-05-03 20:38 48.95311 1.80644 13010 ft 369 kts 262°
2026-05-03 20:38 48.95073 1.76716 13663 ft 372 kts 262°
2026-05-03 20:38 48.94834 1.72786 14234 ft 376 kts 262°
2026-05-03 20:38 48.94591 1.68839 14802 ft 378 kts 262°
2026-05-03 20:39 48.94343 1.64813 15402 ft 381 kts 262°
2026-05-03 20:39 48.94096 1.60815 15980 ft 383 kts 262°
2026-05-03 20:39 48.93843 1.56760 16549 ft 386 kts 261°
2026-05-03 20:39 48.93586 1.52661 17118 ft 389 kts 261°
2026-05-03 20:40 48.93327 1.48550 17681 ft 392 kts 261°
2026-05-03 20:40 48.93067 1.44444 18243 ft 394 kts 261°
2026-05-03 20:40 48.92801 1.40267 18742 ft 397 kts 261°
2026-05-03 20:40 48.92532 1.36057 19276 ft 398 kts 261°
2026-05-03 20:41 48.92265 1.31907 19809 ft 399 kts 261°
2026-05-03 20:41 48.91991 1.27673 20302 ft 402 kts 261°
2026-05-03 20:41 48.91713 1.23414 20775 ft 404 kts 261°
2026-05-03 20:41 48.91436 1.19185 21242 ft 406 kts 261°
2026-05-03 20:42 48.91155 1.14924 21719 ft 408 kts 261°
2026-05-03 20:42 48.90870 1.10610 22196 ft 410 kts 261°
2026-05-03 20:42 48.90580 1.06265 22661 ft 412 kts 260°
2026-05-03 20:42 48.90292 1.01959 23103 ft 414 kts 260°
2026-05-03 20:43 48.90095 0.99045 23403 ft 416 kts 260°
2026-05-03 20:43 48.89701 0.93216 23890 ft 418 kts 260°
2026-05-03 20:43 48.89400 0.88774 24271 ft 419 kts 260°
2026-05-03 20:43 48.89100 0.84407 24605 ft 423 kts 260°
2026-05-03 20:44 48.88626 0.79991 24825 ft 421 kts 250°
2026-05-03 20:44 48.87408 0.75976 25068 ft 415 kts 237°
2026-05-03 20:44 48.85938 0.72206 25329 ft 419 kts 238°
2026-05-03 20:44 48.84514 0.68310 25694 ft 420 kts 239°
2026-05-03 20:45 48.83141 0.64424 26099 ft 421 kts 239°
2026-05-03 20:45 48.81753 0.60486 26465 ft 422 kts 239°
2026-05-03 20:45 48.80393 0.56593 26764 ft 421 kts 242°
2026-05-03 20:45 48.79447 0.52306 26899 ft 433 kts 256°
2026-05-03 20:46 48.79274 0.47734 27121 ft 443 kts 270°
2026-05-03 20:46 48.79608 0.43055 27423 ft 446 kts 271°
2026-05-03 20:46 48.79955 0.38342 27736 ft 447 kts 271°
2026-05-03 20:46 48.80279 0.33682 27876 ft 451 kts 270°
2026-05-03 20:47 48.80595 0.28902 27936 ft 454 kts 270°
2026-05-03 20:47 48.80895 0.24147 27929 ft 458 kts 270°
2026-05-03 20:47 48.81193 0.19285 27941 ft 461 kts 270°
2026-05-03 20:47 48.81484 0.14476 27947 ft 462 kts 270°
2026-05-03 20:48 48.81778 0.09606 27945 ft 462 kts 270°
2026-05-03 20:48 48.82069 0.04741 27939 ft 462 kts 270°
2026-05-03 20:48 48.82354 -0.00063 27941 ft 461 kts 270°
2026-05-03 20:48 48.82640 -0.04934 27952 ft 461 kts 270°
2026-05-03 20:49 48.82921 -0.09734 27938 ft 461 kts 270°
2026-05-03 20:49 48.83202 -0.14581 27937 ft 460 kts 270°
2026-05-03 20:49 48.83482 -0.19418 27944 ft 459 kts 270°
2026-05-03 20:49 48.83760 -0.24273 27940 ft 459 kts 270°
2026-05-03 20:50 48.84026 -0.29045 27937 ft 459 kts 270°
2026-05-03 20:50 48.84287 -0.33897 27943 ft 458 kts 270°
2026-05-03 20:50 48.84540 -0.38679 27941 ft 458 kts 269°
2026-05-03 20:50 48.84793 -0.43529 27938 ft 458 kts 269°
2026-05-03 20:51 48.85045 -0.48358 27946 ft 458 kts 269°
2026-05-03 20:51 48.85296 -0.53192 27943 ft 458 kts 269°
2026-05-03 20:51 48.85541 -0.57965 27944 ft 459 kts 269°
2026-05-03 20:51 48.85789 -0.62822 27941 ft 459 kts 269°
2026-05-03 20:52 48.86035 -0.67665 27944 ft 459 kts 269°
2026-05-03 20:52 48.86277 -0.72459 27954 ft 459 kts 269°
2026-05-03 20:52 48.86520 -0.77320 27941 ft 459 kts 269°
2026-05-03 20:52 48.86757 -0.82100 27948 ft 459 kts 269°
2026-05-03 20:53 48.86995 -0.86953 27954 ft 459 kts 269°
2026-05-03 20:53 48.87228 -0.91750 27956 ft 459 kts 269°
2026-05-03 20:53 48.87463 -0.96616 27949 ft 459 kts 269°
2026-05-03 20:53 48.87696 -1.01473 27946 ft 459 kts 269°
2026-05-03 20:54 48.87923 -1.06281 27950 ft 459 kts 269°
2026-05-03 20:54 48.88376 -1.15952 27949 ft 459 kts 269°
2026-05-03 20:54 48.88598 -1.20768 27946 ft 459 kts 269°
2026-05-03 20:55 48.88821 -1.25628 27958 ft 459 kts 269°
2026-05-03 20:55 48.89041 -1.30493 27953 ft 459 kts 269°
2026-05-03 20:55 48.89257 -1.35309 27962 ft 460 kts 269°
2026-05-03 20:55 48.89471 -1.40134 27946 ft 460 kts 269°
2026-05-03 20:56 48.89687 -1.45006 27959 ft 460 kts 269°
2026-05-03 20:56 48.89899 -1.49842 27937 ft 460 kts 269°
2026-05-03 20:56 48.90109 -1.54651 27946 ft 460 kts 269°
2026-05-03 20:56 48.90322 -1.59510 27954 ft 460 kts 269°
2026-05-03 20:57 48.90535 -1.64370 27957 ft 460 kts 269°
2026-05-03 20:57 48.90746 -1.69233 27938 ft 460 kts 269°
2026-05-03 20:57 48.90923 -1.73370 27945 ft 459 kts 269°
2026-05-03 20:57 48.91086 -1.77196 27974 ft 460 kts 269°
2026-05-03 20:58 48.91259 -1.81338 27953 ft 461 kts 269°
2026-05-03 20:58 48.91456 -1.86062 27955 ft 461 kts 269°
2026-05-03 20:58 48.91645 -1.90627 27956 ft 461 kts 269°
2026-05-03 20:58 48.91843 -1.95465 27952 ft 462 kts 269°
2026-05-03 20:59 48.92043 -2.00384 27957 ft 462 kts 269°
2026-05-03 20:59 48.92238 -2.05230 27948 ft 462 kts 269°
2026-05-03 20:59 48.92433 -2.10114 27948 ft 462 kts 268°
2026-05-03 20:59 48.92623 -2.14950 27955 ft 462 kts 268°
2026-05-03 21:00 48.92815 -2.19863 27969 ft 462 kts 268°
2026-05-03 21:00 48.92876 -2.21448 27964 ft 463 kts 268°
2026-05-03 21:00 48.93189 -2.29624 27959 ft 463 kts 268°
2026-05-03 21:00 48.93372 -2.34488 27955 ft 464 kts 268°
2026-05-03 21:01 48.93556 -2.39422 27961 ft 464 kts 268°
2026-05-03 21:01 48.93737 -2.44308 27957 ft 464 kts 268°
2026-05-03 21:01 48.93916 -2.49228 27954 ft 464 kts 268°
2026-05-03 21:01 48.94088 -2.54104 27954 ft 464 kts 268°
2026-05-03 21:02 48.94256 -2.59026 27953 ft 464 kts 268°
2026-05-03 21:02 48.94420 -2.63942 27982 ft 464 kts 268°
2026-05-03 21:02 48.94580 -2.68812 27964 ft 465 kts 268°
2026-05-03 21:02 48.94740 -2.73692 27963 ft 466 kts 268°
2026-05-03 21:03 48.94895 -2.78482 27962 ft 466 kts 268°
2026-05-03 21:03 48.95040 -2.83021 27960 ft 467 kts 268°
2026-05-03 21:03 48.95198 -2.88006 27958 ft 467 kts 268°
2026-05-03 21:03 48.95351 -2.92899 27952 ft 468 kts 268°
2026-05-03 21:04 48.95504 -2.97878 27951 ft 468 kts 268°
2026-05-03 21:04 48.95654 -3.02780 27952 ft 468 kts 268°
2026-05-03 21:04 48.95803 -3.07752 27989 ft 468 kts 268°
2026-05-03 21:04 48.95949 -3.12715 27955 ft 469 kts 268°
2026-05-03 21:05 48.96092 -3.17625 27969 ft 469 kts 268°
2026-05-03 21:05 48.96235 -3.22608 27964 ft 469 kts 268°
2026-05-03 21:05 48.96376 -3.27586 27961 ft 470 kts 268°
2026-05-03 21:05 48.96514 -3.32532 27964 ft 470 kts 268°
2026-05-03 21:06 48.96604 -3.35836 27957 ft 470 kts 268°
2026-05-03 21:06 48.96783 -3.42443 27960 ft 470 kts 268°
2026-05-03 21:06 48.96871 -3.45757 27964 ft 470 kts 268°
2026-05-03 21:06 48.97001 -3.50698 27960 ft 470 kts 268°
2026-05-03 21:07 48.97129 -3.55684 27971 ft 470 kts 268°
2026-05-03 21:07 48.97254 -3.60594 27970 ft 471 kts 268°
2026-05-03 21:07 48.97374 -3.65411 27966 ft 471 kts 268°
2026-05-03 21:07 48.97494 -3.70302 27962 ft 471 kts 268°
2026-05-03 21:08 48.97615 -3.75285 27954 ft 471 kts 268°
2026-05-03 21:08 48.97733 -3.80267 27952 ft 471 kts 268°
2026-05-03 21:08 48.97848 -3.85235 27953 ft 471 kts 268°
2026-05-03 21:08 48.97962 -3.90221 27951 ft 471 kts 268°
2026-05-03 21:09 48.98074 -3.95229 27949 ft 471 kts 268°
2026-05-03 21:09 48.98183 -4.00179 27961 ft 472 kts 268°
2026-05-03 21:09 48.98290 -4.05191 27955 ft 472 kts 268°
2026-05-03 21:09 48.98395 -4.10153 27954 ft 472 kts 268°
2026-05-03 21:10 48.98499 -4.15185 27953 ft 472 kts 268°
2026-05-03 21:10 48.98600 -4.20160 27953 ft 472 kts 268°
2026-05-03 21:10 48.98699 -4.25142 27954 ft 472 kts 268°
2026-05-03 21:10 48.98796 -4.30171 27954 ft 472 kts 268°
2026-05-03 21:11 48.98890 -4.35135 27950 ft 472 kts 268°
2026-05-03 21:11 48.98983 -4.40147 27959 ft 472 kts 268°
2026-05-03 21:11 48.99072 -4.45129 27959 ft 473 kts 268°
2026-05-03 21:11 48.99161 -4.50152 27960 ft 473 kts 268°
2026-05-03 21:12 48.99247 -4.55141 27955 ft 474 kts 268°
2026-05-03 21:12 48.99330 -4.60131 27951 ft 474 kts 268°
2026-05-03 21:12 48.99413 -4.65196 27947 ft 475 kts 268°
2026-05-03 21:12 48.99493 -4.70211 27952 ft 475 kts 268°
2026-05-03 21:13 48.99571 -4.75263 27952 ft 475 kts 268°
2026-05-03 21:13 48.99646 -4.80254 27951 ft 475 kts 268°
2026-05-03 21:13 48.99720 -4.85313 27951 ft 475 kts 268°
2026-05-03 21:13 48.99791 -4.90311 27951 ft 476 kts 268°
2026-05-03 21:14 48.99860 -4.95371 27953 ft 476 kts 268°
2026-05-03 21:14 48.99926 -5.00360 27951 ft 476 kts 268°
2026-05-03 21:14 48.99992 -5.05413 27950 ft 475 kts 268°
2026-05-03 21:14 49.00054 -5.10406 27950 ft 475 kts 268°
2026-05-03 21:15 49.00114 -5.15458 27951 ft 475 kts 268°
2026-05-03 21:15 49.00173 -5.20515 27951 ft 475 kts 268°
2026-05-03 21:15 49.00228 -5.25507 27950 ft 475 kts 268°
2026-05-03 21:15 49.00282 -5.30545 27966 ft 475 kts 268°
2026-05-03 21:16 49.00333 -5.35584 27955 ft 475 kts 268°
2026-05-03 21:16 49.00383 -5.40629 27951 ft 475 kts 268°
2026-05-03 21:16 49.00429 -5.45614 27948 ft 475 kts 268°
2026-05-03 21:16 49.00475 -5.50663 27946 ft 475 kts 268°
2026-05-03 21:17 49.00518 -5.55717 27953 ft 475 kts 268°
2026-05-03 21:17 49.00545 -5.59057 27952 ft 475 kts 268°
2026-05-03 21:17 49.00597 -5.65766 27946 ft 475 kts 268°
2026-05-03 21:17 49.00633 -5.70775 27947 ft 475 kts 268°
2026-05-03 21:18 49.00666 -5.75829 27960 ft 476 kts 268°
2026-05-03 21:18 49.00698 -5.80816 27951 ft 476 kts 268°
2026-05-03 21:18 49.00728 -5.85889 27950 ft 476 kts 268°
2026-05-03 21:18 49.00756 -5.90952 27946 ft 477 kts 268°
2026-05-03 21:19 49.00781 -5.95965 27956 ft 477 kts 268°
2026-05-03 21:19 49.00804 -6.01047 27950 ft 477 kts 268°
2026-05-03 21:19 49.00825 -6.06075 27955 ft 477 kts 268°
2026-05-03 21:19 49.00844 -6.11153 27947 ft 477 kts 268°
2026-05-03 21:20 49.00861 -6.16180 27944 ft 477 kts 268°
2026-05-03 21:20 49.00875 -6.21256 27956 ft 478 kts 268°
2026-05-03 21:20 49.00887 -6.26305 27944 ft 478 kts 268°
2026-05-03 21:20 49.00897 -6.31381 27940 ft 478 kts 268°
2026-05-03 21:21 49.00905 -6.36442 27942 ft 478 kts 268°
2026-05-03 21:21 49.00910 -6.41433 27956 ft 477 kts 268°
2026-05-03 21:21 49.00914 -6.46520 27953 ft 477 kts 268°
2026-05-03 21:21 49.00915 -6.51545 27948 ft 477 kts 268°
2026-05-03 21:22 49.00914 -6.56640 27947 ft 477 kts 268°
2026-05-03 21:22 49.00910 -6.61641 27960 ft 477 kts 268°
2026-05-03 21:22 49.00904 -6.66717 27942 ft 478 kts 268°
2026-05-03 21:22 49.00897 -6.71772 27944 ft 477 kts 268°
2026-05-03 21:23 49.00887 -6.76850 27952 ft 478 kts 268°
2026-05-03 21:23 49.00875 -6.81874 27948 ft 478 kts 268°
2026-05-03 21:23 49.00861 -6.86966 27949 ft 478 kts 268°
2026-05-03 21:23 49.00844 -6.92000 27949 ft 478 kts 268°
2026-05-03 21:24 49.00826 -6.97018 27946 ft 478 kts 268°
2026-05-03 21:24 49.00805 -7.02102 27949 ft 478 kts 268°
2026-05-03 21:24 49.00781 -7.07179 27955 ft 478 kts 268°
2026-05-03 21:24 49.00755 -7.12202 27950 ft 478 kts 268°
2026-05-03 21:25 49.00728 -7.17286 27951 ft 479 kts 268°
2026-05-03 21:25 49.00699 -7.22370 27950 ft 479 kts 268°
2026-05-03 21:25 49.00667 -7.27408 27947 ft 479 kts 268°
2026-05-03 21:25 49.00633 -7.32461 27947 ft 479 kts 268°
2026-05-03 21:26 49.00597 -7.37546 27947 ft 479 kts 268°
2026-05-03 21:26 49.00559 -7.42591 27947 ft 479 kts 268°
2026-05-03 21:26 49.00518 -7.47701 27948 ft 479 kts 268°
2026-05-03 21:26 49.00476 -7.52744 27961 ft 481 kts 269°
2026-05-03 21:27 49.00432 -7.57886 28144 ft 483 kts 269°
2026-05-03 21:27 49.00388 -7.62955 28494 ft 482 kts 268°
2026-05-03 21:27 49.00341 -7.68062 28898 ft 480 kts 268°
2026-05-03 21:27 49.00293 -7.73156 29299 ft 479 kts 268°
2026-05-03 21:28 49.00243 -7.78242 29673 ft 477 kts 268°
2026-05-03 21:28 49.00191 -7.83262 29897 ft 478 kts 268°
2026-05-03 21:28 49.00047 -7.93406 29945 ft 479 kts 264°
2026-05-03 21:29 48.98523 -8.03144 29959 ft 475 kts 248°
2026-05-03 21:29 48.95385 -8.11946 29962 ft 473 kts 238°
2026-05-03 21:30 48.91933 -8.20419 29962 ft 473 kts 238°